CST,Max TemperatureF,Mean TemperatureF,Min TemperatureF,Max Dew PointF,MeanDew PointF,Min DewpointF,Max Humidity, Mean Humidity, Min Humidity, Max Sea Level PressureIn, Mean Sea Level PressureIn, Min Sea Level PressureIn, Max VisibilityMiles, Mean VisibilityMiles, Min VisibilityMiles, Max Wind SpeedMPH, Mean Wind SpeedMPH, Max Gust SpeedMPH,PrecipitationIn, CloudCover, Events, WindDirDegrees
2012-2-1,33,31,29,34,30,28,100,93,85,30.14,30.07,30.00,8,1,0,10,5,15,0.00,8,Fog,202
2012-2-2,32,30,27,31,29,27,100,96,92,30.46,30.30,30.12,4,1,0,7,2,9,0.00,8,Fog,75
2012-2-3,32,30,27,30,28,25,100,93,85,30.56,30.49,30.40,10,3,0,9,5,13,0.00,8,Fog,38
2012-2-4,39,32,24,30,25,22,100,88,75,30.53,30.43,30.32,10,4,0,15,7,20,0.00,5,Fog,325
2012-2-5,30,27,23,26,25,22,92,89,85,30.41,30.34,30.21,10,7,2,13,7,15,0.00,7,,252
2012-2-6,43,30,17,29,23,15,96,75,53,30.39,30.19,30.05,10,8,4,21,7,26,0.00,1,,351
2012-2-7,30,19,8,20,7,-2,73,54,34,30.64,30.56,30.41,10,10,10,17,8,23,0.00,4,,3
2012-2-8,31,18,4,8,4,-1,80,56,32,30.57,30.43,30.28,10,10,10,16,5,20,0.00,0,,258
2012-2-9,37,24,10,24,13,4,83,64,45,30.26,30.06,29.91,10,10,10,24,10,32,0.00,2,,225
2012-2-10,19,9,-1,3,-8,-13,72,55,38,30.67,30.43,30.13,10,10,10,22,15,30,0.00,0,,346
2012-2-11,18,8,-2,-2,-8,-15,69,51,33,30.71,30.63,30.56,10,10,10,23,13,28,0.00,0,,302
2012-2-12,31,17,3,3,-1,-4,72,50,28,30.53,30.34,30.10,10,10,10,16,7,20,0.00,0,,222
2012-2-13,32,23,14,23,16,3,88,69,49,30.09,29.86,29.71,10,10,7,17,7,21,0.00,8,,170
2012-2-14,35,27,19,27,22,17,100,82,64,29.82,29.74,29.69,10,4,0,15,7,18,T,7,Fog-Snow,162
2012-2-15,40,29,17,30,24,14,92,76,59,30.06,29.94,29.83,10,6,0,15,4,17,T,4,Fog-Snow,234
2012-2-16,39,30,21,24,21,19,92,70,48,30.13,30.08,30.02,10,10,10,21,8,24,0.00,3,,260
2012-2-17,36,27,18,23,19,10,91,72,53,30.23,30.05,29.92,10,9,1,18,9,22,T,5,Snow,310
2012-2-18,35,23,11,17,14,8,88,68,47,30.31,30.24,30.13,10,10,10,12,5,15,0.00,0,,189
2012-2-19,43,28,13,23,19,10,92,66,39,30.19,30.10,30.00,10,10,9,20,9,24,0.00,0,,155
2012-2-20,41,34,27,31,26,19,92,69,45,30.09,29.83,29.61,10,6,1,26,13,32,0.19,6,Snow,141
2012-2-21,34,28,22,31,27,17,92,81,69,29.62,29.54,29.47,10,7,1,24,14,32,0.05,7,Snow,248
2012-2-22,33,24,14,23,19,11,88,74,59,29.59,29.50,29.40,10,10,7,12,4,15,0.00,5,,281
2012-2-23,33,26,19,25,22,18,91,76,61,29.76,29.62,29.42,10,9,4,10,3,14,T,3,Snow,5
2012-2-24,29,20,11,25,14,4,92,76,60,30.15,29.90,29.70,10,9,1,25,14,30,T,7,Snow,315
2012-2-25,25,15,4,15,7,0,87,74,60,30.30,30.21,30.08,10,10,10,15,7,17,0.00,2,,300
2012-2-26,33,29,25,28,20,15,81,72,63,30.06,29.81,29.57,10,10,7,20,13,29,T,8,,225
2012-2-27,29,24,18,21,14,10,88,73,57,30.47,30.37,30.08,10,10,6,25,10,30,T,3,Snow,278
2012-2-28,33,26,19,27,24,14,92,80,68,30.36,29.99,29.69,10,6,1,18,10,28,0.48,8,Rain-Snow,101
2012-2-29,36,33,30,29,28,25,92,81,70,29.77,29.45,29.28,10,4,0,22,13,33,0.51,8,Fog-Snow,45